Time,TemperatureF,DewpointF,PressureIn,WindDirection,WindDirectionDegrees,WindSpeedMPH,WindSpeedGustMPH,Humidity,HourlyPrecipIn,Conditions,Clouds,dailyrainin,SoftwareType,DateUTC
2013-01-13 00:15:00,39.9,33.0,29.94,North,349,5.0,16.0,75,0.00,,,0.00,weatherlink.com 1.10,2013-01-13 06:15:00,
2013-01-13 00:30:00,39.7,32.0,29.95,NNW,338,7.0,15.0,73,0.00,,,0.00,weatherlink.com 1.10,2013-01-13 06:30:00,
2013-01-13 00:45:00,39.7,32.0,29.95,North,359,13.0,13.0,73,0.00,,,0.00,weatherlink.com 1.10,2013-01-13 06:45:00,
2013-01-13 01:00:00,39.8,32.0,29.95,WNW,300,9.0,13.0,73,0.00,,,0.00,weatherlink.com 1.10,2013-01-13 07:00:00,
2013-01-13 01:15:00,39.5,31.0,29.95,NW,320,6.0,18.0,71,0.00,,,0.00,weatherlink.com 1.10,2013-01-13 07:15:00,
2013-01-13 01:30:00,39.1,30.0,29.97,NW,314,6.0,19.0,71,0.00,,,0.00,weatherlink.com 1.10,2013-01-13 07:30:00,
2013-01-13 01:45:00,38.8,30.0,29.97,NNW,341,11.0,21.0,71,0.00,,,0.00,weatherlink.com 1.10,2013-01-13 07:45:00,
2013-01-13 02:00:00,38.7,30.0,29.98,NNW,335,9.0,18.0,71,0.00,,,0.00,weatherlink.com 1.10,2013-01-13 08:00:00,
2013-01-13 02:15:00,38.7,30.0,29.99,North,351,8.0,16.0,71,0.00,,,0.00,weatherlink.com 1.10,2013-01-13 08:15:00,
2013-01-13 02:30:00,38.7,30.0,29.99,NNW,330,8.0,15.0,70,0.00,,,0.00,weatherlink.com 1.10,2013-01-13 08:30:00,
2013-01-13 02:45:00,38.7,29.0,29.99,NW,314,8.0,17.0,69,0.00,,,0.00,weatherlink.com 1.10,2013-01-13 08:45:00,
2013-01-13 03:00:00,38.4,29.0,30.00,NNW,339,7.0,18.0,68,0.00,,,0.00,weatherlink.com 1.10,2013-01-13 09:00:00,
2013-01-13 03:15:00,38.3,28.0,30.00,North,353,9.0,16.0,67,0.00,,,0.00,weatherlink.com 1.10,2013-01-13 09:15:00,
2013-01-13 03:30:00,38.0,28.0,30.00,NNW,328,6.0,16.0,67,0.00,,,0.00,weatherlink.com 1.10,2013-01-13 09:30:00,
2013-01-13 03:45:00,37.8,28.0,30.01,NW,309,6.0,13.0,68,0.00,,,0.00,weatherlink.com 1.10,2013-01-13 09:45:00,
2013-01-13 04:00:00,37.4,27.0,30.01,NW,311,7.0,16.0,67,0.00,,,0.00,weatherlink.com 1.10,2013-01-13 10:00:00,
2013-01-13 04:15:00,37.1,27.0,30.01,NNW,338,8.0,19.0,66,0.00,,,0.00,weatherlink.com 1.10,2013-01-13 10:15:00,
2013-01-13 04:30:00,36.8,27.0,30.01,NNW,334,5.0,17.0,67,0.00,,,0.00,weatherlink.com 1.10,2013-01-13 10:30:00,
2013-01-13 04:45:00,36.9,27.0,30.01,NW,308,7.0,17.0,67,0.00,,,0.00,weatherlink.com 1.10,2013-01-13 10:45:00,
2013-01-13 05:00:00,36.8,27.0,30.03,NNW,330,8.0,17.0,67,0.00,,,0.00,weatherlink.com 1.10,2013-01-13 11:00:00,
2013-01-13 05:15:00,36.7,27.0,30.03,NNW,347,12.0,16.0,67,0.00,,,0.00,weatherlink.com 1.10,2013-01-13 11:15:00,
2013-01-13 05:30:00,36.6,27.0,30.03,NW,324,4.0,14.0,68,0.00,,,0.00,weatherlink.com 1.10,2013-01-13 11:30:00,
2013-01-13 05:45:00,36.7,27.0,30.04,NW,323,12.0,17.0,68,0.00,,,0.00,weatherlink.com 1.10,2013-01-13 11:45:00,
2013-01-13 06:00:00,36.6,26.0,30.04,NW,305,8.0,17.0,66,0.00,,,0.00,weatherlink.com 1.10,2013-01-13 12:00:00,
2013-01-13 06:15:00,36.5,26.0,30.06,NNW,341,4.0,16.0,66,0.00,,,0.00,weatherlink.com 1.10,2013-01-13 12:15:00,
2013-01-13 06:30:00,36.4,26.0,30.07,North,349,5.0,16.0,66,0.00,,,0.00,weatherlink.com 1.10,2013-01-13 12:30:00,
2013-01-13 06:45:00,36.1,26.0,30.08,NW,317,5.0,19.0,67,0.00,,,0.00,weatherlink.com 1.10,2013-01-13 12:45:00,
2013-01-13 07:00:00,35.8,26.0,30.09,North,353,9.0,13.0,68,0.00,,,0.00,weatherlink.com 1.10,2013-01-13 13:00:00,
2013-01-13 07:16:00,35.5,25.0,30.10,NNW,339,5.0,19.0,67,0.00,,,0.00,weatherlink.com 1.10,2013-01-13 13:16:00,
2013-01-13 07:31:00,35.3,25.0,30.11,NNW,328,8.0,15.0,67,0.00,,,0.00,weatherlink.com 1.10,2013-01-13 13:31:00,
2013-01-13 07:46:00,35.4,26.0,30.12,NNW,339,4.0,16.0,68,0.00,,,0.00,weatherlink.com 1.10,2013-01-13 13:46:00,
2013-01-13 08:01:00,35.7,26.0,30.14,NNW,337,8.0,15.0,68,0.00,,,0.00,weatherlink.com 1.10,2013-01-13 14:01:00,
2013-01-13 08:16:00,35.5,26.0,30.15,NNW,337,5.0,11.0,68,0.00,,,0.00,weatherlink.com 1.10,2013-01-13 14:16:00,
2013-01-13 08:31:00,34.6,24.0,30.15,NNW,339,6.0,20.0,66,0.00,,,0.00,weatherlink.com 1.10,2013-01-13 14:31:00,
2013-01-13 08:46:00,34.9,24.0,30.17,NNW,342,8.0,18.0,65,0.00,,,0.00,weatherlink.com 1.10,2013-01-13 14:46:00,
2013-01-13 09:01:00,35.1,24.0,30.18,North,351,10.0,21.0,63,0.00,,,0.00,weatherlink.com 1.10,2013-01-13 15:01:00,
2013-01-13 09:16:00,35.6,24.0,30.18,NNE,12,9.0,19.0,62,0.00,,,0.00,weatherlink.com 1.10,2013-01-13 15:16:00,
2013-01-13 09:31:00,36.0,24.0,30.19,NW,318,10.0,21.0,61,0.00,,,0.00,weatherlink.com 1.10,2013-01-13 15:31:00,
2013-01-13 09:46:00,36.6,25.0,30.20,NW,326,10.0,21.0,62,0.00,,,0.00,weatherlink.com 1.10,2013-01-13 15:46:00,
2013-01-13 10:01:00,37.4,25.0,30.20,NW,312,7.0,19.0,61,0.00,,,0.00,weatherlink.com 1.10,2013-01-13 16:01:00,
2013-01-13 10:16:00,37.7,26.0,30.20,NNW,337,8.0,20.0,62,0.00,,,0.00,weatherlink.com 1.10,2013-01-13 16:16:00,
2013-01-13 10:31:00,38.7,26.0,30.21,NNW,338,8.0,16.0,61,0.00,,,0.00,weatherlink.com 1.10,2013-01-13 16:31:00,
2013-01-13 10:46:00,38.9,26.0,30.22,NNW,332,7.0,17.0,60,0.00,,,0.00,weatherlink.com 1.10,2013-01-13 16:46:00,
2013-01-13 11:01:00,39.8,26.0,30.21,NNW,345,10.0,15.0,59,0.00,,,0.00,weatherlink.com 1.10,2013-01-13 17:01:00,
2013-01-13 11:16:00,40.1,27.0,30.21,NNW,336,14.0,20.0,59,0.00,,,0.00,weatherlink.com 1.10,2013-01-13 17:16:00,
2013-01-13 11:31:00,41.4,27.0,30.20,NNW,348,5.0,14.0,58,0.00,,,0.00,weatherlink.com 1.10,2013-01-13 17:31:00,
2013-01-13 11:46:00,41.5,28.0,30.19,NW,314,6.0,19.0,58,0.00,,,0.00,weatherlink.com 1.10,2013-01-13 17:46:00,
2013-01-13 12:01:00,42.2,28.0,30.18,NW,308,9.0,17.0,57,0.00,,,0.00,weatherlink.com 1.10,2013-01-13 18:01:00,
2013-01-13 12:16:00,42.9,28.0,30.18,NNW,332,4.0,20.0,57,0.00,,,0.00,weatherlink.com 1.10,2013-01-13 18:16:00,
2013-01-13 12:31:00,44.2,29.0,30.17,North,356,9.0,17.0,55,0.00,,,0.00,weatherlink.com 1.10,2013-01-13 18:31:00,
2013-01-13 12:46:00,44.3,28.0,30.17,NNW,333,6.0,15.0,53,0.00,,,0.00,weatherlink.com 1.10,2013-01-13 18:46:00,
2013-01-13 13:01:00,45.0,28.0,30.16,NW,320,7.0,15.0,52,0.00,,,0.00,weatherlink.com 1.10,2013-01-13 19:01:00,
2013-01-13 13:31:00,45.7,29.0,30.14,NW,318,4.0,16.0,52,0.00,,,0.00,weatherlink.com 1.10,2013-01-13 19:31:00,
2013-01-13 13:46:00,46.4,28.0,30.14,NW,318,10.0,16.0,50,0.00,,,0.00,weatherlink.com 1.10,2013-01-13 19:46:00,
2013-01-13 14:01:00,46.9,28.0,30.14,ENE,57,4.0,14.0,49,0.00,,,0.00,weatherlink.com 1.10,2013-01-13 20:01:00,
2013-01-13 14:16:00,47.2,29.0,30.14,North,6,14.0,16.0,49,0.00,,,0.00,weatherlink.com 1.10,2013-01-13 20:16:00,
2013-01-13 14:31:00,48.6,29.0,30.14,North,352,15.0,15.0,47,0.00,,,0.00,weatherlink.com 1.10,2013-01-13 20:31:00,
2013-01-13 14:46:00,47.7,29.0,30.14,NNE,28,9.0,17.0,48,0.00,,,0.00,weatherlink.com 1.10,2013-01-13 20:46:00,
2013-01-13 15:01:00,47.9,28.0,30.14,North,6,5.0,18.0,46,0.00,,,0.00,weatherlink.com 1.10,2013-01-13 21:01:00,
2013-01-13 15:17:00,48.0,28.0,30.14,North,5,9.0,17.0,46,0.00,,,0.00,weatherlink.com 1.10,2013-01-13 21:17:00,
2013-01-13 15:32:00,48.0,27.0,30.15,North,4,10.0,19.0,45,0.00,,,0.00,weatherlink.com 1.10,2013-01-13 21:32:00,
2013-01-13 15:47:00,48.1,27.0,30.14,NNE,23,13.0,17.0,44,0.00,,,0.00,weatherlink.com 1.10,2013-01-13 21:47:00,
2013-01-13 16:02:00,47.8,27.0,30.15,NNW,342,7.0,19.0,45,0.00,,,0.00,weatherlink.com 1.10,2013-01-13 22:02:00,
2013-01-13 16:17:00,47.9,27.0,30.15,NNE,33,10.0,15.0,44,0.00,,,0.00,weatherlink.com 1.10,2013-01-13 22:17:00,
2013-01-13 16:32:00,47.1,27.0,30.16,NNE,16,8.0,17.0,45,0.00,,,0.00,weatherlink.com 1.10,2013-01-13 22:32:00,
2013-01-13 16:47:00,46.7,27.0,30.16,North,8,12.0,16.0,46,0.00,,,0.00,weatherlink.com 1.10,2013-01-13 22:47:00,
2013-01-13 17:02:00,46.4,26.0,30.17,North,359,15.0,15.0,46,0.00,,,0.00,weatherlink.com 1.10,2013-01-13 23:02:00,
2013-01-13 17:17:00,45.5,26.0,30.18,NNE,23,4.0,15.0,46,0.00,,,0.00,weatherlink.com 1.10,2013-01-13 23:17:00,
2013-01-13 17:32:00,44.7,26.0,30.18,NNE,23,7.0,13.0,49,0.00,,,0.00,weatherlink.com 1.10,2013-01-13 23:32:00,
2013-01-13 17:47:00,43.8,27.0,30.18,NNE,23,5.0,12.0,51,0.00,,,0.00,weatherlink.com 1.10,2013-01-13 23:47:00,
2013-01-13 18:02:00,43.0,27.0,30.18,NNE,23,3.0,11.0,53,0.00,,,0.00,weatherlink.com 1.10,2013-01-14 00:02:00,
2013-01-13 18:17:00,42.1,27.0,30.19,NNE,28,3.0,7.0,55,0.00,,,0.00,weatherlink.com 1.10,2013-01-14 00:17:00,
2013-01-13 18:32:00,41.3,27.0,30.19,North,4,4.0,8.0,57,0.00,,,0.00,weatherlink.com 1.10,2013-01-14 00:32:00,
2013-01-13 18:47:00,40.5,27.0,30.18,North,10,4.0,7.0,59,0.00,,,0.00,weatherlink.com 1.10,2013-01-14 00:47:00,
2013-01-13 19:02:00,39.9,27.0,30.18,NNE,12,3.0,6.0,60,0.00,,,0.00,weatherlink.com 1.10,2013-01-14 01:02:00,
2013-01-13 19:17:00,39.3,28.0,30.19,NNE,16,5.0,8.0,63,0.00,,,0.00,weatherlink.com 1.10,2013-01-14 01:17:00,
2013-01-13 19:32:00,38.8,27.0,30.20,North,351,4.0,8.0,64,0.00,,,0.00,weatherlink.com 1.10,2013-01-14 01:32:00,
2013-01-13 19:47:00,38.5,28.0,30.20,NE,37,2.0,11.0,65,0.00,,,0.00,weatherlink.com 1.10,2013-01-14 01:47:00,
2013-01-13 20:02:00,37.9,27.0,30.21,NNE,14,4.0,9.0,65,0.00,,,0.00,weatherlink.com 1.10,2013-01-14 02:02:00,
2013-01-13 20:17:00,37.7,27.0,30.21,North,1,4.0,11.0,65,0.00,,,0.00,weatherlink.com 1.10,2013-01-14 02:17:00,
2013-01-13 20:32:00,37.5,27.0,30.22,North,8,6.0,9.0,65,0.00,,,0.00,weatherlink.com 1.10,2013-01-14 02:32:00,
2013-01-13 20:48:00,37.1,26.0,30.22,NNE,23,6.0,9.0,65,0.00,,,0.00,weatherlink.com 1.10,2013-01-14 02:48:00,
2013-01-13 21:02:00,36.7,26.0,30.22,NNE,12,4.0,8.0,65,0.00,,,0.00,weatherlink.com 1.10,2013-01-14 03:02:00,
2013-01-13 21:17:00,36.3,26.0,30.22,NNE,23,7.0,10.0,66,0.00,,,0.00,weatherlink.com 1.10,2013-01-14 03:17:00,
2013-01-13 21:33:00,36.0,26.0,30.23,North,6,4.0,9.0,67,0.00,,,0.00,weatherlink.com 1.10,2013-01-14 03:33:00,
2013-01-13 21:47:00,35.5,26.0,30.23,North,6,1.0,8.0,68,0.00,,,0.00,weatherlink.com 1.10,2013-01-14 03:47:00,
2013-01-13 22:02:00,35.2,26.0,30.24,North,5,4.0,6.0,68,0.00,,,0.00,weatherlink.com 1.10,2013-01-14 04:02:00,
2013-01-13 22:17:00,34.8,26.0,30.24,NNE,14,8.0,9.0,69,0.00,,,0.00,weatherlink.com 1.10,2013-01-14 04:17:00,
2013-01-13 22:32:00,34.5,25.0,30.24,North,10,4.0,9.0,69,0.00,,,0.00,weatherlink.com 1.10,2013-01-14 04:32:00,
2013-01-13 22:47:00,34.2,25.0,30.25,North,4,7.0,10.0,68,0.00,,,0.00,weatherlink.com 1.10,2013-01-14 04:47:00,
2013-01-13 23:17:00,33.6,24.0,30.24,North,6,6.0,11.0,69,0.00,,,0.00,weatherlink.com 1.10,2013-01-14 05:17:00,
2013-01-13 23:32:00,33.4,24.0,30.23,NNE,17,7.0,13.0,68,0.00,,,0.00,weatherlink.com 1.10,2013-01-14 05:32:00,
2013-01-13 23:48:00,33.3,24.0,30.22,NNE,28,7.0,12.0,68,0.00,,,0.00,weatherlink.com 1.10,2013-01-14 05:48:00,